White Plains, CT

11:54 AM EDT on March 26, 2017 (GMT -0400)
Westchester County

Weather History for KHPN - June, 2014

Change the Weather History Date:

Tuesday, June 17, 2014

  Actual Average Record
Temperature  
Mean Temperature 74 °F -  
Max Temperature 87 °F 75 °F 87 °F (2000)
Min Temperature 63 °F 57 °F 50 °F (2003)
Cooling Degree Days 8    
Growing Degree Days 24 (Base 50)    
Moisture  
Dew Point 65 °F    
Average Humidity 73    
Maximum Humidity 93    
Minimum Humidity 53    
Precipitation  
Precipitation 0.00 in - - ()
Sea Level Pressure  
Sea Level Pressure 29.99 in    
Wind  
Wind Speed 3 mph (SSE)    
Max Wind Speed 12 mph    
Max Gust Speed -    
Visibility 9 miles    
Events Rain    
Averages and records for this station are not official NWS values.
T = Trace of Precipitation, MM = Missing Value Source: NWS Daily Summary

Daily Weather History Graph

Daily Weather History Graph

Search for Another Location

Airport or City:

Trip Planner

Search our weather history database for the weather conditions in past years. The results will help you decide how hot, cold, wet, or windy it might be!

Date:

Astronomy

Jun. 17, 2014 Rise Set
Actual Time 5:21 AM EDT 8:29 PM EDT
Civil Twilight 4:48 AM EDT 9:03 PM EDT
Nautical Twilight 4:05 AM EDT 9:46 PM EDT
Astronomical Twilight 3:14 AM EDT 10:37 PM EDT
Moon 11:54 PM EDT (6/17) 10:35 AM EDT (6/17)
Length of Visible Light 16h 15m
Length of Day
15h 07m
Waning Gibbous, 73% of the Moon is Illuminated
Jun 17
Waning Gibbous
Jun 19
Last Quarter
Jun 27
New
Jul 5
First Quarter
Jul 12
Full

Hourly Weather History & Observations

Time (EDT) Temp. Heat Index Dew Point Humidity Pressure Visibility Wind Dir Wind Speed Gust Speed Precip Events Conditions
12:56 AM 64.9 °F - 57.9 °F 78% 30.06 in 10.0 mi SE 3.5 mph - 0.00 in Rain Light Rain
1:56 AM 64.0 °F - 59.0 °F 84% 30.04 in 10.0 mi Calm Calm - 0.00 in   Clear
2:56 AM 63.0 °F - 60.1 °F 90% 30.03 in 10.0 mi Calm Calm - N/A   Clear
3:56 AM 63.0 °F - 60.1 °F 90% 30.02 in 10.0 mi Calm Calm - N/A   Scattered Clouds
4:56 AM 63.0 °F - 61.0 °F 93% 30.03 in 9.0 mi Calm Calm - N/A   Clear
5:56 AM 64.0 °F - 61.0 °F 90% 30.02 in 6.0 mi Calm Calm - N/A   Mostly Cloudy
6:56 AM 64.9 °F - 62.1 °F 90% 30.04 in 5.0 mi Calm Calm - N/A   Scattered Clouds
7:56 AM 70.0 °F - 63.0 °F 78% 30.04 in 9.0 mi SW 3.5 mph - N/A   Clear
8:56 AM 73.0 °F - 64.0 °F 73% 30.05 in 10.0 mi Calm Calm - N/A   Mostly Cloudy
9:56 AM 75.0 °F - 64.9 °F 71% 30.06 in 10.0 mi Calm Calm - N/A   Mostly Cloudy
10:56 AM 79.0 °F - 66.9 °F 66% 30.06 in 10.0 mi Variable 3.5 mph - N/A   Scattered Clouds
11:56 AM 81.0 °F 82.7 °F 64.9 °F 58% 30.04 in 10.0 mi Calm Calm - N/A   Partly Cloudy
12:56 PM 82.9 °F 87.0 °F 70.0 °F 65% 30.02 in 10.0 mi SE 9.2 mph - N/A   Partly Cloudy
1:56 PM 84.9 °F 88.2 °F 68.0 °F 57% 30.00 in 10.0 mi SE 6.9 mph - N/A   Scattered Clouds
2:56 PM 84.9 °F 88.2 °F 68.0 °F 57% 29.99 in 10.0 mi SE 4.6 mph - N/A   Scattered Clouds
3:56 PM 84.0 °F 85.8 °F 64.9 °F 53% 29.97 in 10.0 mi SSE 6.9 mph - N/A   Partly Cloudy
4:56 PM 84.9 °F 87.1 °F 66.0 °F 53% 29.95 in 10.0 mi SE 11.5 mph - N/A   Partly Cloudy
5:56 PM 84.0 °F 87.0 °F 68.0 °F 58% 29.95 in 9.0 mi South 8.1 mph - N/A   Partly Cloudy
6:56 PM 81.0 °F 83.3 °F 66.9 °F 62% 29.94 in 9.0 mi South 6.9 mph - N/A   Partly Cloudy
7:56 PM 79.0 °F - 69.1 °F 72% 29.90 in 9.0 mi South 5.8 mph - N/A   Clear
8:56 PM 77.0 °F - 68.0 °F 74% 29.91 in 8.0 mi South 3.5 mph - N/A   Clear
9:56 PM 73.9 °F - 68.0 °F 82% 29.90 in 7.0 mi Calm Calm - N/A   Clear
10:56 PM 73.9 °F - 66.9 °F 79% 29.89 in 7.0 mi Calm Calm - N/A   Clear
11:56 PM 75.0 °F - 66.9 °F 76% 29.86 in 7.0 mi Calm Calm - N/A   Clear